• In Deutschland
  • Länderverzeichnis
  • Für 7 Tage
  • Wassertemperatur
  • Satellitenkarten
  • Wetterkarte
  • Widgets
  • user-avatar
    Anmelden

    Stündliche Wetter Altbach

    Heute, 22 Juli, Sonntag

    Zeit Temperatur Niederschläge Wind Luftdruck Luftfeuchtigkeit
    00:00 +18°C° 0,5 mm 2 m/S 733 mmHg 93%
    01:00 +17°C° 0,5 mm 2 m/S 733 mmHg 94%
    02:00 +17°C° 0,2 mm 2 m/S 733 mmHg 94%
    03:00 +17°C° 0,2 mm 2 m/S 733 mmHg 95%
    04:00 +16°C° 0,2 mm 2 m/S 733 mmHg 95%
    05:00 +17°C° 0,1 mm 2 m/S 733 mmHg 94%
    06:00 +18°C° 0,1 mm 2 m/S 733 mmHg 92%
    07:00 +18°C° 0,1 mm 2 m/S 733 mmHg 91%
    08:00 +20°C° 0,2 mm 2 m/S 733 mmHg 86%
    09:00 +21°C° 0,2 mm 2 m/S 733 mmHg 81%
    10:00 +22°C° 0,2 mm 3 m/S 734 mmHg 76%
    11:00 +24°C° 0,9 mm 2 m/S 733 mmHg 75%
    12:00 +24°C° 0,9 mm 2 m/S 733 mmHg 74%
    13:00 +25°C° 0,9 mm 2 m/S 733 mmHg 73%
    14:00 +25°C° 1 mm 2 m/S 733 mmHg 73%
    15:00 +25°C° 1 mm 2 m/S 733 mmHg 74%
    16:00 +25°C° 1 mm 2 m/S 733 mmHg 74%
    17:00 +24°C° 1 mm 2 m/S 733 mmHg 77%
    18:00 +24°C° 1 mm 1 m/S 733 mmHg 81%
    19:00 +23°C° 1 mm 1 m/S 733 mmHg 84%
    20:00 +22°C° 0,4 mm 1 m/S 733 mmHg 86%
    21:00 +20°C° 0,4 mm 1 m/S 734 mmHg 88%
    22:00 +19°C° 0,4 mm 1 m/S 734 mmHg 89%
    23:00 +17°C° 0 mm 0 m/S 734 mmHg 90%

    Morgen, 23 Juli, Montag

    Zeit Temperatur Niederschläge Wind Luftdruck Luftfeuchtigkeit
    00:00 +16°C° 0 mm 0 m/S 734 mmHg 90%
    01:00 +16°C° 0 mm 0 m/S 734 mmHg 91%
    02:00 +16°C° 0 mm 0 m/S 734 mmHg 91%
    03:00 +15°C° 0 mm 0 m/S 735 mmHg 92%
    04:00 +15°C° 0 mm 0 m/S 735 mmHg 92%
    05:00 +16°C° 0 mm 0 m/S 735 mmHg 91%
    06:00 +17°C° 0 mm 0 m/S 735 mmHg 89%
    07:00 +18°C° 0 mm 0 m/S 736 mmHg 88%
    08:00 +22°C° 0,1 mm 1 m/S 736 mmHg 81%
    09:00 +23°C° 0,1 mm 1 m/S 736 mmHg 75%
    10:00 +25°C° 0,1 mm 1 m/S 736 mmHg 68%
    11:00 +26°C° 0,3 mm 2 m/S 736 mmHg 64%
    12:00 +26°C° 0,3 mm 2 m/S 736 mmHg 61%
    13:00 +27°C° 0,3 mm 2 m/S 736 mmHg 57%
    14:00 +28°C° 0,2 mm 2 m/S 735 mmHg 57%
    15:00 +28°C° 0,2 mm 2 m/S 735 mmHg 56%
    16:00 +28°C° 0,2 mm 2 m/S 735 mmHg 56%
    17:00 +27°C° 0,1 mm 2 m/S 735 mmHg 61%
    18:00 +26°C° 0,1 mm 2 m/S 735 mmHg 66%
    19:00 +25°C° 0,1 mm 1 m/S 735 mmHg 71%
    20:00 +24°C° 0 mm 1 m/S 736 mmHg 75%
    21:00 +22°C° 0 mm 1 m/S 736 mmHg 78%
    22:00 +20°C° 0 mm 1 m/S 736 mmHg 82%
    23:00 +20°C° 0 mm 1 m/S 736 mmHg 83%

    übermorgen, 24 Juli, Dienstag

    Zeit Temperatur Niederschläge Wind Luftdruck Luftfeuchtigkeit
    00:00 +19°C° 0 mm 1 m/S 735 mmHg 85%
    01:00 +19°C° 0 mm 1 m/S 735 mmHg 86%
    02:00 +19°C° 0 mm 1 m/S 735 mmHg 87%
    03:00 +18°C° 0 mm 1 m/S 735 mmHg 88%
    04:00 +18°C° 0 mm 1 m/S 735 mmHg 88%
    05:00 +19°C° 0 mm 1 m/S 735 mmHg 85%
    06:00 +20°C° 0 mm 1 m/S 735 mmHg 82%
    07:00 +21°C° 0 mm 1 m/S 735 mmHg 79%
    08:00 +23°C° 0 mm 1 m/S 735 mmHg 73%
    09:00 +25°C° 0 mm 2 m/S 735 mmHg 67%
    10:00 +27°C° 0 mm 2 m/S 735 mmHg 61%
    11:00 +28°C° 0 mm 2 m/S 735 mmHg 58%
    12:00 +28°C° 0 mm 2 m/S 734 mmHg 55%
    13:00 +29°C° 0 mm 3 m/S 734 mmHg 52%
    14:00 +29°C° 0 mm 3 m/S 734 mmHg 52%
    15:00 +29°C° 0 mm 3 m/S 734 mmHg 52%
    16:00 +30°C° 0 mm 2 m/S 734 mmHg 52%
    17:00 +29°C° 0 mm 2 m/S 734 mmHg 58%
    18:00 +27°C° 0 mm 2 m/S 734 mmHg 64%
    19:00 +26°C° 0 mm 2 m/S 734 mmHg 70%
    20:00 +25°C° 0 mm 2 m/S 734 mmHg 74%
    21:00 +23°C° 0 mm 1 m/S 734 mmHg 78%
    22:00 +22°C° 0 mm 1 m/S 734 mmHg 82%
    23:00 +21°C° 0 mm 1 m/S 734 mmHg 83%

    25 Juli, Mittwoch

    Zeit Temperatur Niederschläge Wind Luftdruck Luftfeuchtigkeit
    00:00 +21°C° 0 mm 1 m/S 734 mmHg 84%
    01:00 +20°C° 0 mm 1 m/S 734 mmHg 86%
    02:00 +20°C° 0 mm 1 m/S 734 mmHg 87%
    03:00 +19°C° 0 mm 1 m/S 734 mmHg 88%
    04:00 +19°C° 0 mm 1 m/S 734 mmHg 89%
    05:00 +20°C° 0 mm 1 m/S 735 mmHg 86%
    06:00 +21°C° 0 mm 1 m/S 735 mmHg 82%
    07:00 +22°C° 0 mm 1 m/S 735 mmHg 79%
    08:00 +24°C° 0 mm 1 m/S 735 mmHg 73%
    09:00 +26°C° 0 mm 2 m/S 735 mmHg 67%
    10:00 +28°C° 0 mm 2 m/S 735 mmHg 60%
    11:00 +28°C° 0 mm 2 m/S 735 mmHg 57%
    12:00 +29°C° 0 mm 2 m/S 735 mmHg 54%
    13:00 +30°C° 0 mm 3 m/S 734 mmHg 51%
    14:00 +30°C° 0 mm 3 m/S 734 mmHg 51%
    15:00 +30°C° 0 mm 2 m/S 734 mmHg 51%
    16:00 +30°C° 0 mm 2 m/S 734 mmHg 51%
    17:00 +29°C° 0 mm 2 m/S 734 mmHg 56%
    18:00 +28°C° 0 mm 2 m/S 734 mmHg 62%
    19:00 +27°C° 0 mm 1 m/S 734 mmHg 67%
    20:00 +26°C° 0 mm 1 m/S 734 mmHg 71%
    21:00 +24°C° 0 mm 1 m/S 734 mmHg 74%
    22:00 +22°C° 0 mm 1 m/S 734 mmHg 77%
    23:00 +22°C° 0 mm 1 m/S 734 mmHg 79%

    26 Juli, Donnerstag

    Zeit Temperatur Niederschläge Wind Luftdruck Luftfeuchtigkeit
    00:00 +21°C° 0 mm 1 m/S 734 mmHg 81%
    01:00 +21°C° 0 mm 1 m/S 734 mmHg 83%
    02:00 +20°C° 0 mm 1 m/S 734 mmHg 84%
    03:00 +20°C° 0 mm 1 m/S 734 mmHg 85%
    04:00 +20°C° 0 mm 1 m/S 734 mmHg 87%
    05:00 +21°C° 0 mm 1 m/S 734 mmHg 84%
    06:00 +22°C° 0 mm 1 m/S 735 mmHg 82%
    07:00 +23°C° 0 mm 1 m/S 735 mmHg 79%
    08:00 +25°C° 0 mm 1 m/S 735 mmHg 72%
    09:00 +26°C° 0 mm 2 m/S 735 mmHg 66%
    10:00 +28°C° 0 mm 2 m/S 735 mmHg 60%
    11:00 +29°C° 0 mm 2 m/S 735 mmHg 56%
    12:00 +30°C° 0 mm 3 m/S 735 mmHg 53%
    13:00 +31°C° 0 mm 3 m/S 735 mmHg 49%
    14:00 +31°C° 0 mm 3 m/S 735 mmHg 50%
    15:00 +31°C° 0 mm 3 m/S 735 mmHg 50%
    16:00 +31°C° 0 mm 3 m/S 735 mmHg 50%
    17:00 +30°C° 0 mm 3 m/S 735 mmHg 56%
    18:00 +28°C° 0 mm 2 m/S 735 mmHg 62%
    19:00 +27°C° 0 mm 2 m/S 735 mmHg 67%
    20:00 +26°C° 0 mm 1 m/S 735 mmHg 71%
    21:00 +24°C° 0 mm 1 m/S 735 mmHg 74%
    22:00 +23°C° 0 mm 1 m/S 735 mmHg 78%
    23:00 +22°C° 0 mm 1 m/S 735 mmHg 79%

    27 Juli, Freitag

    Zeit Temperatur Niederschläge Wind Luftdruck Luftfeuchtigkeit
    00:00 +22°C° 0 mm 1 m/S 735 mmHg 81%
    01:00 +21°C° 0 mm 1 m/S 735 mmHg 83%
    02:00 +21°C° 0 mm 1 m/S 735 mmHg 84%
    03:00 +20°C° 0 mm 1 m/S 735 mmHg 86%
    04:00 +18°C° 0 mm 0 m/S 735 mmHg 87%
    05:00 +21°C° 0 mm 1 m/S 735 mmHg 84%
    06:00 +22°C° 0 mm 1 m/S 735 mmHg 81%
    07:00 +23°C° 0 mm 1 m/S 735 mmHg 78%
    08:00 +25°C° 0 mm 1 m/S 735 mmHg 72%
    09:00 +27°C° 0 mm 1 m/S 735 mmHg 65%
    10:00 +28°C° 0 mm 2 m/S 735 mmHg 59%
    11:00 +29°C° 0 mm 2 m/S 735 mmHg 55%
    12:00 +30°C° 0 mm 2 m/S 735 mmHg 52%
    13:00 +31°C° 0 mm 2 m/S 734 mmHg 48%
    14:00 +31°C° 0 mm 2 m/S 734 mmHg 48%
    15:00 +31°C° 0 mm 2 m/S 734 mmHg 48%
    16:00 +31°C° 0 mm 2 m/S 734 mmHg 49%
    17:00 +30°C° 0 mm 2 m/S 734 mmHg 55%
    18:00 +29°C° 0 mm 2 m/S 734 mmHg 60%
    19:00 +28°C° 0 mm 1 m/S 734 mmHg 66%
    20:00 +26°C° 0 mm 1 m/S 734 mmHg 69%
    21:00 +25°C° 0 mm 1 m/S 734 mmHg 73%
    22:00 +24°C° 0 mm 1 m/S 734 mmHg 76%
    23:00 +23°C° 0 mm 1 m/S 734 mmHg 77%
    Mehr zeigen